Anderson, SC

5:27 PM EDT on April 20, 2018 (GMT -0400)
Anderson Regional

Weather History for KAND - January, 2014

Change the Weather History Date:

Monday, January 27, 2014

  Actual Average Record
Temperature  
Mean Temperature 52 °F -  
Max Temperature 64 °F 53 °F 75 °F (1954)
Min Temperature 39 °F 31 °F 11 °F (1985)
Degree Days  
Heating Degree Days 14    
Growing Degree Days 2 (Base 50)    
Moisture  
Dew Point 30 °F    
Average Humidity 47    
Maximum Humidity 73    
Minimum Humidity 30    
Precipitation  
Precipitation 0.00 in - - ()
Sea Level Pressure  
Sea Level Pressure 29.90 in    
Wind  
Wind Speed 8 mph (WSW)    
Max Wind Speed 18 mph    
Max Gust Speed 25 mph    
Visibility 10 miles    
Events      
Averages and records for this station are not official NWS values.
T = Trace of Precipitation, MM = Missing Value Source: NWS Daily Summary

Daily Weather History Graph

Daily Weather History Graph

Search for Another Location

Airport or City:

Astronomy

Jan. 27, 2014 Rise Set
Actual Time 7:32 AM EST 5:55 PM EST
Civil Twilight 7:05 AM EST 6:22 PM EST
Nautical Twilight 6:35 AM EST 6:52 PM EST
Astronomical Twilight 6:05 AM EST 7:22 PM EST
Moon 4:10 AM EST (1/27) 2:42 PM EST (1/27)
Length of Visible Light 11h 16m
Length of Day
10h 23m
Waning Crescent, 15% of the Moon is Illuminated
Jan 27
Waning Crescent
Jan 30
New
Feb 6
First Quarter
Feb 14
Full
Feb 22
Last Quarter

Hourly Weather History & Observations

Time (EST) Temp. Windchill Dew Point Humidity Pressure Visibility Wind Dir Wind Speed Gust Speed Precip Events Conditions
12:56 AM 44.1 °F 41.5 °F 28.9 °F 55% 29.91 in 10.0 mi SW 4.6 mph - N/A   Overcast
1:56 AM 43.0 °F 39.5 °F 30.0 °F 60% 29.91 in 10.0 mi SSW 5.8 mph - N/A   Overcast
2:56 AM 44.1 °F 40.1 °F 30.0 °F 58% 29.90 in 10.0 mi SSW 6.9 mph - N/A   Overcast
3:56 AM 44.1 °F 40.8 °F 30.0 °F 58% 29.87 in 10.0 mi South 5.8 mph - N/A   Overcast
4:56 AM 44.1 °F 40.1 °F 30.9 °F 60% 29.86 in 10.0 mi South 6.9 mph - N/A   Overcast
5:56 AM 44.1 °F 41.5 °F 30.9 °F 60% 29.89 in 10.0 mi SW 4.6 mph - N/A   Mostly Cloudy
6:56 AM 39.9 °F 36.7 °F 32.0 °F 73% 29.90 in 10.0 mi South 4.6 mph - 0.00 in   Mostly Cloudy
7:56 AM 39.9 °F 36.7 °F 30.9 °F 70% 29.90 in 10.0 mi SW 4.6 mph - N/A   Scattered Clouds
8:56 AM 45.0 °F 42.6 °F 32.0 °F 60% 29.90 in 10.0 mi SW 4.6 mph - N/A   Clear
9:56 AM 52.0 °F - 34.0 °F 50% 29.88 in 10.0 mi WSW 10.4 mph - N/A   Clear
10:56 AM 55.9 °F - 33.1 °F 42% 29.88 in 10.0 mi West 10.4 mph - N/A   Clear
11:56 AM 60.1 °F - 33.1 °F 36% 29.87 in 10.0 mi WSW 12.7 mph 17.3 mph N/A   Mostly Cloudy
12:56 PM 59.0 °F - 32.0 °F 36% 29.86 in 10.0 mi WSW 11.5 mph - N/A   Mostly Cloudy
1:56 PM 62.1 °F - 33.1 °F 34% 29.84 in 10.0 mi West 15.0 mph - N/A   Clear
2:56 PM 64.0 °F - 32.0 °F 30% 29.84 in 10.0 mi West 12.7 mph 23.0 mph N/A   Partly Cloudy
3:56 PM 61.0 °F - 33.1 °F 35% 29.85 in 10.0 mi West 18.4 mph 25.3 mph N/A   Clear
4:56 PM 59.0 °F - 30.9 °F 35% 29.87 in 10.0 mi West 15.0 mph 20.7 mph N/A   Clear
5:56 PM 54.0 °F - 30.9 °F 41% 29.89 in 10.0 mi West 6.9 mph - N/A   Clear
6:56 PM 53.1 °F - 26.1 °F 35% 29.93 in 10.0 mi West 10.4 mph - N/A   Clear
7:56 PM 48.9 °F - 23.0 °F 36% 29.95 in 10.0 mi West 10.4 mph - N/A   Clear
8:56 PM 48.0 °F - 23.0 °F 37% 29.97 in 10.0 mi Calm Calm - N/A   Clear
9:56 PM 45.0 °F 40.1 °F 25.0 °F 46% 29.99 in 10.0 mi West 9.2 mph - N/A   Clear
10:56 PM 43.0 °F 37.2 °F 23.0 °F 45% 30.00 in 10.0 mi West 10.4 mph - N/A   Clear
11:56 PM 41.0 °F 36.4 °F 21.9 °F 47% 30.01 in 10.0 mi West 6.9 mph - N/A   Clear